User: anonymous   Login
Location: Unspecified
(0.0000°N, 0.0000°E)
Time: 08:38:20
(UTC+00:00)
Language:

SO-67 - Orbit

View from above orbital plane
View from above orbital plane
View from above satellite
View from above satellite

Ground track
Ground track

The orbit data is extracted from the following two-line orbital elements,

1 35870U 09049F   15214.74780381  .00007218  00000-0  16696-3 0  9995
2 35870 097.1343 230.0983 0003198 076.1026 030.2014 15.42770442327299
Epoch (UTC): 02 August 2015 17:56:50
Eccentricity: 0.0003198
inclination: 97.1343°
perigee height: 436 km
apogee height: 440 km
right ascension of ascending node: 230.0983°
argument of perigee: 76.1026°
revolutions per day: 15.42770442
mean anomaly at epoch: 30.2014°
orbit number at epoch: 32729

The dashed part of the orbit path shows where the satellite is in the earth's shadow,  

DLR